Location: Sternwarte Stuttgart
(48.7670°N, 9.1830°E)
Time: 22:11:16
(UTC+02:00)

Cosmos 1092 Rocket - Pass Details

Date: 24 January 2019
Orbit: 955 x 994 km, 83.0° (Epoch: 20 October)

Event Time Altitude Azimuth Distance (km) Brightness Sun altitude
Rises 07:00:27 0° 179° (S) 3,628 7.2 -10.4°
Reaches altitude 10° 07:02:56 10° 177° (S) 2,690 6.6 -10.0°
Maximum altitude 07:09:03 71° 95° (E) 1,021 4.4 -9.0°
Drops below altitude 10° 07:15:16 10° 13° (NNE) 2,734 6.3 -8.0°
Sets 07:17:48 0° 11° (NNE) 3,692 6.9 -7.7°
